Albury, New South Wales

5:09 PM AEDT on February 12, 2016 (GMT +1100)
Albury | | Change Station
CLOSE
Current Station
Airport
Location: Albury,
Elevation: 541 ft
Nearby Weather Stations

Elev 541 ft 36.07 °S, 146.96 °E | Updated 9 minutes ago

Overcast
Overcast
93 °F
Feels Like 93 °F
N
6
Wind Variable Wind from North

Today
High -- | Low -- °F
--% Chance of Precip.
Yesterday
High -- | Low -- °F
Precip. -- in
Pressure 29.86 in
Visibility 6.2 miles
Clouds Mostly Cloudy 10000 ft
Overcast 12000 ft
Dew Point 46 °F
Humidity 20%
Rainfall 0.00 in
Snow Depth Not available.
6:40 AM 8:12 PM
Waxing Crescent, 17% visible
METAR YMAY 120600Z AUTO 36005KT 300V040 9999 // BKN100 OVC120 34/08 Q1011
Pressure 29.86 in
Visibility 6.2 miles
Clouds Mostly Cloudy 10000 ft
Overcast 12000 ft
Dew Point 46 °F
Humidity 20%
Rainfall 0.00 in
Snow Depth Not available.
6:40 AM 8:12 PM
Waxing Crescent, 17% visible
METAR YMAY 120600Z AUTO 36005KT 300V040 9999 // BKN100 OVC120 34/08 Q1011

10-Day Weather Forecast

Almanac

Astronomy

Feb. 12, 2016 Rise Set
Actual Time
Civil Twilight
Nautical Twilight
Astronomical Twilight
Moon
Length of Visible Light
Length of Day
Tomorrow will be .
, % of the Moon is Illuminated

Today's Extremes

Country Highs Country Lows

Community

WunderPhotos

Upload Photos

1,892,270 photos uploaded!

WunderBlog® & News

Nearby

Air Quality

  Air Quality AQ Index Pollutant
Not available.

Snow Depth

Station Depth Elevation

Earthquake Activity

City Distance Mag. Time & Date
Minimum magnitude displayed is 2.5.

Coastal Water Temperatures

Place Temperature

Stations

Nearby Weather Stations

Station Location Temp. Windchill Dew Point Humidity Wind Precip. Elev Updated Type